COSMOS 1261 DEB, 12893

Orbit data source: Space-Track

COSMOS 1261 DEB, 12893 is space debris originally from a launch on Tue, 31 Mar 1981 UTC launched from the Plesetsk Missile And Space Complex (PKMTR). Debris objects in space refer to the collection of defunct objects orbiting the Earth. Examples of debris include non-operational satellites, rocket bodies, and fragments generated from explosions, collisions, or faulty payload assembly.

Loading next visibility...
Identifier
12893, 1981-031F
Orbit
Molniya
Country
Flag of CISCIS
Related business
Manufacturer
Unknown
Mission
Spacecraft
Bus & Motor
Unknown
Mass
Unknown
Launch date (UTC)
1981-03-31 (45 years ago)
Launch vehicle
Unknown
Launch site
Plesetsk Missile And Space Complex (PKMTR)
Object type
Payload
Rocket body
Debris
Shape & HBR
Unknown shape, 0.6 m
Radar Cross Section
Medium (>0.1 m² and <1 m²)

Expand to show TLE details & history
Last TLE update: 4 days ago

TLE from 4 days ago
0 COSMOS 1261 DEB
1 12893U 81031F   25300.22519132 -.00000642  00000-0  00000+0 0  9993
2 12893  64.7481  14.3298 7096042  27.4331 356.6688  2.01209382307425
Epoch: 2025-10-27T05:24Z
TLE epoch observation values (Epoch: 2025-10-27T05:24:16.530Z)
Latitude
0.00027°
Longitude
-102.53122°
Altitude
1,666.829 km
Speed
9.169 km/s
True Right ascension
00h 57m 28s
True Declination
0° 00' 01"
Sunlit
Object was in full shadow at epoch
Visualization orbit readout
Latitude
Unknown
Longitude
Unknown
Altitude
Unknown
Speed
Unknown
Apparent Right ascension
Unknown
Apparent Declination
Unknown
Sunlit
N/A
Visualization observer readout
Local Sidereal Time
06:51:54
Azimuth
Unknown
Elevation
Unknown
Doppler factor
Unknown
Orbital elements
Apogee altitude
38,930.52 km
Perigee altitude
1,318.056 km
Semi-major axis
26,502.425 km
Eccentricity
0.7096
Inclination
64.7481°
RAAN
14.3298°
Arg. of periapsis
27.4331°
True anomaly
333.02026°
Mean anomaly
356.6688°
Eccentric anomaly
348.70708°
Mean motion
0.50305 °/min
Orbital period
715.63 mins
BSTAR
0
Loading maneuver chart data...
Computing Atmospheric mass density...
Loading historical data...
Loading historical data...
Loading historical data...
Loading historical data...
Loading historical data...
Loading historical data...
Loading historical data...

Documentation

Showing up to 5 results
|